Year,Month,Day,Hour,Minute,Value (Times are PST for insolation in W/m^2)
2010,03,29,00,00,0.00
2010,03,29,00,01,0.00
2010,03,29,00,02,0.00
2010,03,29,00,03,0.00
2010,03,29,00,04,0.00
2010,03,29,00,05,0.00
2010,03,29,00,06,0.00
2010,03,29,00,07,0.00
2010,03,29,00,08,0.00
2010,03,29,00,09,0.00
2010,03,29,00,10,0.00
2010,03,29,00,11,0.00
2010,03,29,00,12,0.00
2010,03,29,00,13,0.00
2010,03,29,00,14,0.00
2010,03,29,00,15,0.00
2010,03,29,00,16,0.00
2010,03,29,00,17,0.00
2010,03,29,00,18,0.00
2010,03,29,00,19,0.00
2010,03,29,00,20,0.00
2010,03,29,00,21,0.00
2010,03,29,00,22,0.00
2010,03,29,00,23,0.00
2010,03,29,00,24,0.00
2010,03,29,00,25,0.00
2010,03,29,00,26,0.00
2010,03,29,00,27,0.00
2010,03,29,00,28,0.00
2010,03,29,00,29,0.00
2010,03,29,00,30,0.00
2010,03,29,00,31,0.00
2010,03,29,00,32,0.00
2010,03,29,00,33,0.00
2010,03,29,00,34,0.00
2010,03,29,00,35,0.00
2010,03,29,00,36,0.00
2010,03,29,00,37,0.00
2010,03,29,00,38,0.00
2010,03,29,00,39,0.00
2010,03,29,00,40,0.00
2010,03,29,00,41,0.00
2010,03,29,00,42,0.00
2010,03,29,00,43,0.00
2010,03,29,00,44,0.00
2010,03,29,00,45,0.00
2010,03,29,00,46,0.00
2010,03,29,00,47,0.00
2010,03,29,00,48,0.00
2010,03,29,00,49,0.00
2010,03,29,00,50,0.00
2010,03,29,00,51,0.00
2010,03,29,00,52,0.00
2010,03,29,00,53,0.00
2010,03,29,00,54,0.00
2010,03,29,00,55,0.00
2010,03,29,00,56,0.00
2010,03,29,00,57,0.00
2010,03,29,00,58,0.00
2010,03,29,00,59,0.00
2010,03,29,01,00,0.00
2010,03,29,01,01,0.00
2010,03,29,01,02,0.00
2010,03,29,01,03,0.00
2010,03,29,01,04,0.00
2010,03,29,01,05,0.00
2010,03,29,01,06,0.00
2010,03,29,01,07,0.00
2010,03,29,01,08,0.00
2010,03,29,01,09,0.00
2010,03,29,01,10,0.00
2010,03,29,01,11,0.00
2010,03,29,01,12,0.00
2010,03,29,01,13,0.00
2010,03,29,01,14,0.00
2010,03,29,01,15,0.00
2010,03,29,01,16,0.00
2010,03,29,01,17,0.00
2010,03,29,01,18,0.00
2010,03,29,01,19,0.00
2010,03,29,01,20,0.00
2010,03,29,01,21,0.00
2010,03,29,01,22,0.00
2010,03,29,01,23,0.00
2010,03,29,01,24,0.00
2010,03,29,01,25,0.00
2010,03,29,01,26,0.00
2010,03,29,01,27,0.00
2010,03,29,01,28,0.00
2010,03,29,01,29,0.00
2010,03,29,01,30,0.00
2010,03,29,01,31,0.00
2010,03,29,01,32,0.00
2010,03,29,01,33,0.00
2010,03,29,01,34,0.00
2010,03,29,01,35,0.00
2010,03,29,01,36,0.00
2010,03,29,01,37,0.00
2010,03,29,01,38,0.00
2010,03,29,01,39,0.00
2010,03,29,01,40,0.00
2010,03,29,01,41,0.00
2010,03,29,01,42,0.00
2010,03,29,01,43,0.00
2010,03,29,01,44,0.00
2010,03,29,01,45,0.00
2010,03,29,01,46,0.00
2010,03,29,01,47,0.00
2010,03,29,01,48,0.00
2010,03,29,01,49,0.00
2010,03,29,01,50,0.00
2010,03,29,01,51,0.00
2010,03,29,01,52,0.00
2010,03,29,01,53,0.00
2010,03,29,01,54,0.00
2010,03,29,01,55,0.00
2010,03,29,01,56,0.00
2010,03,29,01,57,0.00
2010,03,29,01,58,0.00
2010,03,29,01,59,0.00
2010,03,29,02,00,0.00
2010,03,29,02,01,0.00
2010,03,29,02,02,0.00
2010,03,29,02,03,0.00
2010,03,29,02,04,0.00
2010,03,29,02,05,0.00
2010,03,29,02,06,0.00
2010,03,29,02,07,0.00
2010,03,29,02,08,0.00
2010,03,29,02,09,0.00
2010,03,29,02,10,0.00
2010,03,29,02,11,0.00
2010,03,29,02,12,0.00
2010,03,29,02,13,0.00
2010,03,29,02,14,0.00
2010,03,29,02,15,0.00
2010,03,29,02,16,0.00
2010,03,29,02,17,0.00
2010,03,29,02,18,0.00
2010,03,29,02,19,0.00
2010,03,29,02,20,0.00
2010,03,29,02,21,0.00
2010,03,29,02,22,0.00
2010,03,29,02,23,0.00
2010,03,29,02,24,0.00
2010,03,29,02,25,0.00
2010,03,29,02,26,0.00
2010,03,29,02,27,0.00
2010,03,29,02,28,0.00
2010,03,29,02,29,0.00
2010,03,29,02,30,0.00
2010,03,29,02,31,0.00
2010,03,29,02,32,0.00
2010,03,29,02,33,0.00
2010,03,29,02,34,0.00
2010,03,29,02,35,0.00
2010,03,29,02,36,0.00
2010,03,29,02,37,0.00
2010,03,29,02,38,0.00
2010,03,29,02,39,0.00
2010,03,29,02,40,0.00
2010,03,29,02,41,0.00
2010,03,29,02,42,0.00
2010,03,29,02,43,0.00
2010,03,29,02,44,0.00
2010,03,29,02,45,0.00
2010,03,29,02,46,0.00
2010,03,29,02,47,0.00
2010,03,29,02,48,0.00
2010,03,29,02,49,0.00
2010,03,29,02,50,0.00
2010,03,29,02,51,0.00
2010,03,29,02,52,0.00
2010,03,29,02,53,0.00
2010,03,29,02,54,0.00
2010,03,29,02,55,0.00
2010,03,29,02,56,0.00
2010,03,29,02,57,0.00
2010,03,29,02,58,0.00
2010,03,29,02,59,0.00
2010,03,29,03,00,0.00
2010,03,29,03,01,0.00
2010,03,29,03,02,0.00
2010,03,29,03,03,0.00
2010,03,29,03,04,0.00
2010,03,29,03,05,0.00
2010,03,29,03,06,0.00
2010,03,29,03,07,0.00
2010,03,29,03,08,0.00
2010,03,29,03,09,0.00
2010,03,29,03,10,0.00
2010,03,29,03,11,0.00
2010,03,29,03,12,0.00
2010,03,29,03,13,0.00
2010,03,29,03,14,0.00
2010,03,29,03,15,0.00
2010,03,29,03,16,0.00
2010,03,29,03,17,0.00
2010,03,29,03,18,0.00
2010,03,29,03,19,0.00
2010,03,29,03,20,0.00
2010,03,29,03,21,0.00
2010,03,29,03,22,0.00
2010,03,29,03,23,0.00
2010,03,29,03,24,0.00
2010,03,29,03,25,0.00
2010,03,29,03,26,0.00
2010,03,29,03,27,0.00
2010,03,29,03,28,0.00
2010,03,29,03,29,0.00
2010,03,29,03,30,0.00
2010,03,29,03,31,0.00
2010,03,29,03,32,0.00
2010,03,29,03,33,0.00
2010,03,29,03,34,0.00
2010,03,29,03,35,0.00
2010,03,29,03,36,0.00
2010,03,29,03,37,0.00
2010,03,29,03,38,0.00
2010,03,29,03,39,0.00
2010,03,29,03,40,0.00
2010,03,29,03,41,0.00
2010,03,29,03,42,0.00
2010,03,29,03,43,0.00
2010,03,29,03,44,0.00
2010,03,29,03,45,0.00
2010,03,29,03,46,0.00
2010,03,29,03,47,0.00
2010,03,29,03,48,0.00
2010,03,29,03,49,0.00
2010,03,29,03,50,0.00
2010,03,29,03,51,0.00
2010,03,29,03,52,0.00
2010,03,29,03,53,0.00
2010,03,29,03,54,0.00
2010,03,29,03,55,0.00
2010,03,29,03,56,0.00
2010,03,29,03,57,0.00
2010,03,29,03,58,0.00
2010,03,29,03,59,0.00
2010,03,29,04,00,0.00
2010,03,29,04,01,0.00
2010,03,29,04,02,0.00
2010,03,29,04,03,0.00
2010,03,29,04,04,0.00
2010,03,29,04,05,0.00
2010,03,29,04,06,0.00
2010,03,29,04,07,0.00
2010,03,29,04,08,0.00
2010,03,29,04,09,0.00
2010,03,29,04,10,0.00
2010,03,29,04,11,0.00
2010,03,29,04,12,0.00
2010,03,29,04,13,0.00
2010,03,29,04,14,0.00
2010,03,29,04,15,0.00
2010,03,29,04,16,0.00
2010,03,29,04,17,0.00
2010,03,29,04,18,0.00
2010,03,29,04,19,0.00
2010,03,29,04,20,0.00
2010,03,29,04,21,0.00
2010,03,29,04,22,0.00
2010,03,29,04,23,0.00
2010,03,29,04,24,0.00
2010,03,29,04,25,0.00
2010,03,29,04,26,0.00
2010,03,29,04,27,0.00
2010,03,29,04,28,0.00
2010,03,29,04,29,0.00
2010,03,29,04,30,0.00
2010,03,29,04,31,0.00
2010,03,29,04,32,0.00
2010,03,29,04,33,0.00
2010,03,29,04,34,0.00
2010,03,29,04,35,0.00
2010,03,29,04,36,0.00
2010,03,29,04,37,0.00
2010,03,29,04,38,0.00
2010,03,29,04,39,0.00
2010,03,29,04,40,0.00
2010,03,29,04,41,0.00
2010,03,29,04,42,0.00
2010,03,29,04,43,0.00
2010,03,29,04,44,0.00
2010,03,29,04,45,0.00
2010,03,29,04,46,0.00
2010,03,29,04,47,0.00
2010,03,29,04,48,0.00
2010,03,29,04,49,0.00
2010,03,29,04,50,0.00
2010,03,29,04,51,0.00
2010,03,29,04,52,0.00
2010,03,29,04,53,0.00
2010,03,29,04,54,0.00
2010,03,29,04,55,0.00
2010,03,29,04,56,0.00
2010,03,29,04,57,0.00
2010,03,29,04,58,0.00
2010,03,29,04,59,0.00
2010,03,29,05,00,0.00
2010,03,29,05,01,0.00
2010,03,29,05,02,0.00
2010,03,29,05,03,0.00
2010,03,29,05,04,0.00
2010,03,29,05,05,0.00
2010,03,29,05,06,0.00
2010,03,29,05,07,0.00
2010,03,29,05,08,0.00
2010,03,29,05,09,0.00
2010,03,29,05,10,0.00
2010,03,29,05,11,0.00
2010,03,29,05,12,0.00
2010,03,29,05,13,0.00
2010,03,29,05,14,0.00
2010,03,29,05,15,0.00
2010,03,29,05,16,0.00
2010,03,29,05,17,0.00
2010,03,29,05,18,0.00
2010,03,29,05,19,0.00
2010,03,29,05,20,0.00
2010,03,29,05,21,0.00
2010,03,29,05,22,0.00
2010,03,29,05,23,0.00
2010,03,29,05,24,0.00
2010,03,29,05,25,0.00
2010,03,29,05,26,0.00
2010,03,29,05,27,0.00
2010,03,29,05,28,0.00
2010,03,29,05,29,0.00
2010,03,29,05,30,0.00
2010,03,29,05,31,0.00
2010,03,29,05,32,0.00
2010,03,29,05,33,0.00
2010,03,29,05,34,0.00
2010,03,29,05,35,0.00
2010,03,29,05,36,0.00
2010,03,29,05,37,0.00
2010,03,29,05,38,0.00
2010,03,29,05,39,0.00
2010,03,29,05,40,0.00
2010,03,29,05,41,0.00
2010,03,29,05,42,0.00
2010,03,29,05,43,0.00
2010,03,29,05,44,0.00
2010,03,29,05,45,0.00
2010,03,29,05,46,0.00
2010,03,29,05,47,0.00
2010,03,29,05,48,0.00
2010,03,29,05,49,0.00
2010,03,29,05,50,0.00
2010,03,29,05,51,0.00
2010,03,29,05,52,0.00
2010,03,29,05,53,0.00
2010,03,29,05,54,0.00
2010,03,29,05,55,0.00
2010,03,29,05,56,0.00
2010,03,29,05,57,0.00
2010,03,29,05,58,0.00
2010,03,29,05,59,0.00
2010,03,29,06,00,0.00
2010,03,29,06,01,0.00
2010,03,29,06,02,0.00
2010,03,29,06,03,0.00
2010,03,29,06,04,0.00
2010,03,29,06,05,0.00
2010,03,29,06,06,0.00
2010,03,29,06,07,0.00
2010,03,29,06,08,0.00
2010,03,29,06,09,0.00
2010,03,29,06,10,0.00
2010,03,29,06,11,0.00
2010,03,29,06,12,0.00
2010,03,29,06,13,0.00
2010,03,29,06,14,0.00
2010,03,29,06,15,0.00
2010,03,29,06,16,0.00
2010,03,29,06,17,0.00
2010,03,29,06,18,0.00
2010,03,29,06,19,0.00
2010,03,29,06,20,0.00
2010,03,29,06,21,0.00
2010,03,29,06,22,0.00
2010,03,29,06,23,0.00
2010,03,29,06,24,0.00
2010,03,29,06,25,0.00
2010,03,29,06,26,0.00
2010,03,29,06,27,0.00
2010,03,29,06,28,0.00
2010,03,29,06,29,0.00
2010,03,29,06,30,0.00
2010,03,29,06,31,0.00
2010,03,29,06,32,0.00
2010,03,29,06,33,0.00
2010,03,29,06,34,0.00
2010,03,29,06,35,0.00
2010,03,29,06,36,0.00
2010,03,29,06,37,0.00
2010,03,29,06,38,0.00
2010,03,29,06,39,0.00
2010,03,29,06,40,0.00
2010,03,29,06,41,0.00
2010,03,29,06,42,0.00
2010,03,29,06,43,0.00
2010,03,29,06,44,0.00
2010,03,29,06,45,0.00
2010,03,29,06,46,0.00
2010,03,29,06,47,0.00
2010,03,29,06,48,0.00
2010,03,29,06,49,0.00
2010,03,29,06,50,0.00
2010,03,29,06,51,0.00
2010,03,29,06,52,0.00
2010,03,29,06,53,0.00
2010,03,29,06,54,0.00
2010,03,29,06,55,0.00
2010,03,29,06,56,0.00
2010,03,29,06,57,0.00
2010,03,29,06,58,0.00
2010,03,29,06,59,0.00
2010,03,29,07,00,0.00
2010,03,29,07,01,0.00
2010,03,29,07,02,0.00
2010,03,29,07,03,0.00
2010,03,29,07,04,0.00
2010,03,29,07,05,0.00
2010,03,29,07,06,0.00
2010,03,29,07,07,0.00
2010,03,29,07,08,0.00
2010,03,29,07,09,0.00
2010,03,29,07,10,0.00
2010,03,29,07,11,0.00
2010,03,29,07,12,0.00
2010,03,29,07,13,0.00
2010,03,29,07,14,0.00
2010,03,29,07,15,0.00
2010,03,29,07,16,0.00
2010,03,29,07,17,0.00
2010,03,29,07,18,0.00
2010,03,29,07,19,0.00
2010,03,29,07,20,0.00
2010,03,29,07,21,0.00
2010,03,29,07,22,0.00
2010,03,29,07,23,0.00
2010,03,29,07,24,0.00
2010,03,29,07,25,0.00
2010,03,29,07,26,0.00
2010,03,29,07,27,0.00
2010,03,29,07,28,0.00
2010,03,29,07,29,0.00
2010,03,29,07,30,0.00
2010,03,29,07,31,0.00
2010,03,29,07,32,0.00
2010,03,29,07,33,0.00
2010,03,29,07,34,1.30
2010,03,29,07,35,5.70
2010,03,29,07,36,7.90
2010,03,29,07,37,10.10
2010,03,29,07,38,11.00
2010,03,29,07,39,11.80
2010,03,29,07,40,12.00
2010,03,29,07,41,12.40
2010,03,29,07,42,16.60
2010,03,29,07,43,20.10
2010,03,29,07,44,23.90
2010,03,29,07,45,25.50
2010,03,29,07,46,26.00
2010,03,29,07,47,26.00
2010,03,29,07,48,25.20
2010,03,29,07,49,25.00
2010,03,29,07,50,25.00
2010,03,29,07,51,25.00
2010,03,29,07,52,24.40
2010,03,29,07,53,20.80
2010,03,29,07,54,18.00
2010,03,29,07,55,18.00
2010,03,29,07,56,18.00
2010,03,29,07,57,18.00
2010,03,29,07,58,18.30
2010,03,29,07,59,21.40
2010,03,29,08,00,23.50
2010,03,29,08,01,26.20
2010,03,29,08,02,29.00
2010,03,29,08,03,34.20
2010,03,29,08,04,38.40
2010,03,29,08,05,45.40
2010,03,29,08,06,53.30
2010,03,29,08,07,65.00
2010,03,29,08,08,65.00
2010,03,29,08,09,95.80
2010,03,29,08,10,165.80
2010,03,29,08,11,185.00
2010,03,29,08,12,214.20
2010,03,29,08,13,196.20
2010,03,29,08,14,171.40
2010,03,29,08,15,172.10
2010,03,29,08,16,176.00
2010,03,29,08,17,163.80
2010,03,29,08,18,120.00
2010,03,29,08,19,100.70
2010,03,29,08,20,87.30
2010,03,29,08,21,76.70
2010,03,29,08,22,52.70
2010,03,29,08,23,36.80
2010,03,29,08,24,33.80
2010,03,29,08,25,41.40
2010,03,29,08,26,51.70
2010,03,29,08,27,67.10
2010,03,29,08,28,80.60
2010,03,29,08,29,88.40
2010,03,29,08,30,85.80
2010,03,29,08,31,98.40
2010,03,29,08,32,128.90
2010,03,29,08,33,156.00
2010,03,29,08,34,99.50
2010,03,29,08,35,80.90
2010,03,29,08,36,77.90
2010,03,29,08,37,80.20
2010,03,29,08,38,81.00
2010,03,29,08,39,81.00
2010,03,29,08,40,85.20
2010,03,29,08,41,86.10
2010,03,29,08,42,88.30
2010,03,29,08,43,90.00
2010,03,29,08,44,90.00
2010,03,29,08,45,90.00
2010,03,29,08,46,90.00
2010,03,29,08,47,90.70
2010,03,29,08,48,91.00
2010,03,29,08,49,91.00
2010,03,29,08,50,92.80
2010,03,29,08,51,90.40
2010,03,29,08,52,89.60
2010,03,29,08,53,93.00
2010,03,29,08,54,95.10
2010,03,29,08,55,102.10
2010,03,29,08,56,120.40
2010,03,29,08,57,202.20
2010,03,29,08,58,315.60
2010,03,29,08,59,335.20
2010,03,29,09,00,353.20
2010,03,29,09,01,358.00
2010,03,29,09,02,356.90
2010,03,29,09,03,350.00
2010,03,29,09,04,308.40
2010,03,29,09,05,252.50
2010,03,29,09,06,193.90
2010,03,29,09,07,161.10
2010,03,29,09,08,154.80
2010,03,29,09,09,155.00
2010,03,29,09,10,120.00
2010,03,29,09,11,99.00
2010,03,29,09,12,86.80
2010,03,29,09,13,71.00
2010,03,29,09,14,55.10
2010,03,29,09,15,42.10
2010,03,29,09,16,31.50
2010,03,29,09,17,21.90
2010,03,29,09,18,17.30
2010,03,29,09,19,16.00
2010,03,29,09,20,17.60
2010,03,29,09,21,21.60
2010,03,29,09,22,30.10
2010,03,29,09,23,32.00
2010,03,29,09,24,33.50
2010,03,29,09,25,60.80
2010,03,29,09,26,53.00
2010,03,29,09,27,42.70
2010,03,29,09,28,35.20
2010,03,29,09,29,31.20
2010,03,29,09,30,28.60
2010,03,29,09,31,28.00
2010,03,29,09,32,29.90
2010,03,29,09,33,34.00
2010,03,29,09,34,44.00
2010,03,29,09,35,61.10
2010,03,29,09,36,79.60
2010,03,29,09,37,107.00
2010,03,29,09,38,150.60
2010,03,29,09,39,209.60
2010,03,29,09,40,245.60
2010,03,29,09,41,283.20
2010,03,29,09,42,289.60
2010,03,29,09,43,317.90
2010,03,29,09,44,341.20
2010,03,29,09,45,341.10
2010,03,29,09,46,345.60
2010,03,29,09,47,348.80
2010,03,29,09,48,350.00
2010,03,29,09,49,348.30
2010,03,29,09,50,336.30
2010,03,29,09,51,323.20
2010,03,29,09,52,352.90
2010,03,29,09,53,355.00
2010,03,29,09,54,362.30
2010,03,29,09,55,369.00
2010,03,29,09,56,370.40
2010,03,29,09,57,373.40
2010,03,29,09,58,379.40
2010,03,29,09,59,385.50
2010,03,29,10,00,391.80
2010,03,29,10,01,399.10
2010,03,29,10,02,406.60
2010,03,29,10,03,418.10
2010,03,29,10,04,429.20
2010,03,29,10,05,441.80
2010,03,29,10,06,456.90
2010,03,29,10,07,474.00
2010,03,29,10,08,485.60
2010,03,29,10,09,498.40
2010,03,29,10,10,506.90
2010,03,29,10,11,513.50
2010,03,29,10,12,518.00
2010,03,29,10,13,522.80
2010,03,29,10,14,526.40
2010,03,29,10,15,527.00
2010,03,29,10,16,479.60
2010,03,29,10,17,441.20
2010,03,29,10,18,493.10
2010,03,29,10,19,515.40
2010,03,29,10,20,533.50
2010,03,29,10,21,545.20
2010,03,29,10,22,538.00
2010,03,29,10,23,391.40
2010,03,29,10,24,377.50
2010,03,29,10,25,353.70
2010,03,29,10,26,213.10
2010,03,29,10,27,196.80
2010,03,29,10,28,176.70
2010,03,29,10,29,148.00
2010,03,29,10,30,128.10
2010,03,29,10,31,128.80
2010,03,29,10,32,131.70
2010,03,29,10,33,137.90
2010,03,29,10,34,146.40
2010,03,29,10,35,145.40
2010,03,29,10,36,134.60
2010,03,29,10,37,123.00
2010,03,29,10,38,109.30
2010,03,29,10,39,92.80
2010,03,29,10,40,77.80
2010,03,29,10,41,66.90
2010,03,29,10,42,53.90
2010,03,29,10,43,39.00
2010,03,29,10,44,27.00
2010,03,29,10,45,18.80
2010,03,29,10,46,16.00
2010,03,29,10,47,14.70
2010,03,29,10,48,14.00
2010,03,29,10,49,15.80
2010,03,29,10,50,14.00
2010,03,29,10,51,14.40
2010,03,29,10,52,16.50
2010,03,29,10,53,20.00
2010,03,29,10,54,28.70
2010,03,29,10,55,51.20
2010,03,29,10,56,90.70
2010,03,29,10,57,145.80
2010,03,29,10,58,199.20
2010,03,29,10,59,234.70
2010,03,29,11,00,236.00
2010,03,29,11,01,207.70
2010,03,29,11,02,158.60
2010,03,29,11,03,106.00
2010,03,29,11,04,86.00
2010,03,29,11,05,56.60
2010,03,29,11,06,34.70
2010,03,29,11,07,28.20
2010,03,29,11,08,28.60
2010,03,29,11,09,33.40
2010,03,29,11,10,37.70
2010,03,29,11,11,37.20
2010,03,29,11,12,33.90
2010,03,29,11,13,35.80
2010,03,29,11,14,42.50
2010,03,29,11,15,46.50
2010,03,29,11,16,43.50
2010,03,29,11,17,38.60
2010,03,29,11,18,35.80
2010,03,29,11,19,31.00
2010,03,29,11,20,25.50
2010,03,29,11,21,20.60
2010,03,29,11,22,18.30
2010,03,29,11,23,16.40
2010,03,29,11,24,16.00
2010,03,29,11,25,14.30
2010,03,29,11,26,16.40
2010,03,29,11,27,19.00
2010,03,29,11,28,21.00
2010,03,29,11,29,22.10
2010,03,29,11,30,25.10
2010,03,29,11,31,27.50
2010,03,29,11,32,28.00
2010,03,29,11,33,26.00
2010,03,29,11,34,25.00
2010,03,29,11,35,25.00
2010,03,29,11,36,25.00
2010,03,29,11,37,25.50
2010,03,29,11,38,27.10
2010,03,29,11,39,29.40
2010,03,29,11,40,30.00
2010,03,29,11,41,32.70
2010,03,29,11,42,33.00
2010,03,29,11,43,35.20
2010,03,29,11,44,46.90
2010,03,29,11,45,64.60
2010,03,29,11,46,93.10
2010,03,29,11,47,129.90
2010,03,29,11,48,177.00
2010,03,29,11,49,237.50
2010,03,29,11,50,334.30
2010,03,29,11,51,406.80
2010,03,29,11,52,485.00
2010,03,29,11,53,538.50
2010,03,29,11,54,523.00
2010,03,29,11,55,484.50
2010,03,29,11,56,471.00
2010,03,29,11,57,415.70
2010,03,29,11,58,371.20
2010,03,29,11,59,307.10
2010,03,29,12,00,320.80
2010,03,29,12,01,417.70
2010,03,29,12,02,466.60
2010,03,29,12,03,436.00
2010,03,29,12,04,436.00
2010,03,29,12,05,372.30
2010,03,29,12,06,384.70
2010,03,29,12,07,460.00
2010,03,29,12,08,377.00
2010,03,29,12,09,336.80
2010,03,29,12,10,325.60
2010,03,29,12,11,297.70
2010,03,29,12,12,259.00
2010,03,29,12,13,319.90
2010,03,29,12,14,350.00
2010,03,29,12,15,541.20
2010,03,29,12,16,597.70
2010,03,29,12,17,618.70
2010,03,29,12,18,651.00
2010,03,29,12,19,661.60
2010,03,29,12,20,670.00
2010,03,29,12,21,653.20
2010,03,29,12,22,642.00
2010,03,29,12,23,527.60
2010,03,29,12,24,511.70
2010,03,29,12,25,521.40
2010,03,29,12,26,480.00
2010,03,29,12,27,480.00
2010,03,29,12,28,492.60
2010,03,29,12,29,519.10
2010,03,29,12,30,563.50
2010,03,29,12,31,588.60
2010,03,29,12,32,591.00
2010,03,29,12,33,450.40
2010,03,29,12,34,409.00
2010,03,29,12,35,209.10
2010,03,29,12,36,186.40
2010,03,29,12,37,171.90
2010,03,29,12,38,161.90
2010,03,29,12,39,172.00
2010,03,29,12,40,210.00
2010,03,29,12,41,235.30
2010,03,29,12,42,251.10
2010,03,29,12,43,305.20
2010,03,29,12,44,338.90
2010,03,29,12,45,373.40
2010,03,29,12,46,432.50
2010,03,29,12,47,484.40
2010,03,29,12,48,512.00
2010,03,29,12,49,615.60
2010,03,29,12,50,664.90
2010,03,29,12,51,663.80
2010,03,29,12,52,630.60
2010,03,29,12,53,654.50
2010,03,29,12,54,663.50
2010,03,29,12,55,663.00
2010,03,29,12,56,682.60
2010,03,29,12,57,685.50
2010,03,29,12,58,680.60
2010,03,29,12,59,675.70
2010,03,29,13,00,681.20
2010,03,29,13,01,688.10
2010,03,29,13,02,691.60
2010,03,29,13,03,667.00
2010,03,29,13,04,631.40
2010,03,29,13,05,571.30
2010,03,29,13,06,514.80
2010,03,29,13,07,495.70
2010,03,29,13,08,284.00
2010,03,29,13,09,228.80
2010,03,29,13,10,221.20
2010,03,29,13,11,213.40
2010,03,29,13,12,219.10
2010,03,29,13,13,234.70
2010,03,29,13,14,280.80
2010,03,29,13,15,334.00
2010,03,29,13,16,367.10
2010,03,29,13,17,400.40
2010,03,29,13,18,425.00
2010,03,29,13,19,436.20
2010,03,29,13,20,457.00
2010,03,29,13,21,353.80
2010,03,29,13,22,273.80
2010,03,29,13,23,262.20
2010,03,29,13,24,266.00
2010,03,29,13,25,287.70
2010,03,29,13,26,316.40
2010,03,29,13,27,334.50
2010,03,29,13,28,348.40
2010,03,29,13,29,360.10
2010,03,29,13,30,385.80
2010,03,29,13,31,415.10
2010,03,29,13,32,406.80
2010,03,29,13,33,360.90
2010,03,29,13,34,302.10
2010,03,29,13,35,255.50
2010,03,29,13,36,208.30
2010,03,29,13,37,172.60
2010,03,29,13,38,142.90
2010,03,29,13,39,111.80
2010,03,29,13,40,96.90
2010,03,29,13,41,90.80
2010,03,29,13,42,87.60
2010,03,29,13,43,83.00
2010,03,29,13,44,80.90
2010,03,29,13,45,74.40
2010,03,29,13,46,68.70
2010,03,29,13,47,62.00
2010,03,29,13,48,62.10
2010,03,29,13,49,66.20
2010,03,29,13,50,68.80
2010,03,29,13,51,69.80
2010,03,29,13,52,72.90
2010,03,29,13,53,70.50
2010,03,29,13,54,91.10
2010,03,29,13,55,133.20
2010,03,29,13,56,154.60
2010,03,29,13,57,156.50
2010,03,29,13,58,151.80
2010,03,29,13,59,149.10
2010,03,29,14,00,148.80
2010,03,29,14,01,148.00
2010,03,29,14,02,148.00
2010,03,29,14,03,147.10
2010,03,29,14,04,144.90
2010,03,29,14,05,144.00
2010,03,29,14,06,145.50
2010,03,29,14,07,150.30
2010,03,29,14,08,156.60
2010,03,29,14,09,162.60
2010,03,29,14,10,165.70
2010,03,29,14,11,167.00
2010,03,29,14,12,169.60
2010,03,29,14,13,177.90
2010,03,29,14,14,181.00
2010,03,29,14,15,165.80
2010,03,29,14,16,163.00
2010,03,29,14,17,110.30
2010,03,29,14,18,120.50
2010,03,29,14,19,131.10
2010,03,29,14,20,142.20
2010,03,29,14,21,148.60
2010,03,29,14,22,150.30
2010,03,29,14,23,168.20
2010,03,29,14,24,202.10
2010,03,29,14,25,219.90
2010,03,29,14,26,213.20
2010,03,29,14,27,197.80
2010,03,29,14,28,181.10
2010,03,29,14,29,172.00
2010,03,29,14,30,175.60
2010,03,29,14,31,178.70
2010,03,29,14,32,179.00
2010,03,29,14,33,212.30
2010,03,29,14,34,255.00
2010,03,29,14,35,272.20
2010,03,29,14,36,356.70
2010,03,29,14,37,399.20
2010,03,29,14,38,409.30
2010,03,29,14,39,380.00
2010,03,29,14,40,350.50
2010,03,29,14,41,369.00
2010,03,29,14,42,388.10
2010,03,29,14,43,327.90
2010,03,29,14,44,301.80
2010,03,29,14,45,299.60
2010,03,29,14,46,288.00
2010,03,29,14,47,285.60
2010,03,29,14,48,302.60
2010,03,29,14,49,323.80
2010,03,29,14,50,343.40
2010,03,29,14,51,380.00
2010,03,29,14,52,382.50
2010,03,29,14,53,392.00
2010,03,29,14,54,392.00
2010,03,29,14,55,488.50
2010,03,29,14,56,585.00
2010,03,29,14,57,466.40
2010,03,29,14,58,424.00
2010,03,29,14,59,743.00
2010,03,29,15,00,786.00
2010,03,29,15,01,735.00
2010,03,29,15,02,634.30
2010,03,29,15,03,577.20
2010,03,29,15,04,596.00
2010,03,29,15,05,626.00
2010,03,29,15,06,579.80
2010,03,29,15,07,532.70
2010,03,29,15,08,568.20
2010,03,29,15,09,482.00
2010,03,29,15,10,482.00
2010,03,29,15,11,408.00
2010,03,29,15,12,275.00
2010,03,29,15,13,253.00
2010,03,29,15,14,241.10
2010,03,29,15,15,290.40
2010,03,29,15,16,295.90
2010,03,29,15,17,248.00
2010,03,29,15,18,290.00
2010,03,29,15,19,317.80
2010,03,29,15,20,389.90
2010,03,29,15,21,416.20
2010,03,29,15,22,438.70
2010,03,29,15,23,401.60
2010,03,29,15,24,383.00
2010,03,29,15,25,272.20
2010,03,29,15,26,196.40
2010,03,29,15,27,287.10
2010,03,29,15,28,325.00
2010,03,29,15,29,263.50
2010,03,29,15,30,257.80
2010,03,29,15,31,234.80
2010,03,29,15,32,240.20
2010,03,29,15,33,327.20
2010,03,29,15,34,366.20
2010,03,29,15,35,631.00
2010,03,29,15,36,603.00
2010,03,29,15,37,603.00
2010,03,29,15,38,587.20
2010,03,29,15,39,531.50
2010,03,29,15,40,533.80
2010,03,29,15,41,527.00
2010,03,29,15,42,553.90
2010,03,29,15,43,557.00
2010,03,29,15,44,554.30
2010,03,29,15,45,556.00
2010,03,29,15,46,573.70
2010,03,29,15,47,573.70
2010,03,29,15,48,547.00
2010,03,29,15,49,550.00
2010,03,29,15,50,568.40
2010,03,29,15,51,579.50
2010,03,29,15,52,548.60
2010,03,29,15,53,527.00
2010,03,29,15,54,553.80
2010,03,29,15,55,559.30
2010,03,29,15,56,560.20
2010,03,29,15,57,549.50
2010,03,29,15,58,556.60
2010,03,29,15,59,559.00
2010,03,29,16,00,521.60
2010,03,29,16,01,443.20
2010,03,29,16,02,390.00
2010,03,29,16,03,391.90
2010,03,29,16,04,426.80
2010,03,29,16,05,417.80
2010,03,29,16,06,406.50
2010,03,29,16,07,425.50
2010,03,29,16,08,439.60
2010,03,29,16,09,412.00
2010,03,29,16,10,339.60
2010,03,29,16,11,286.80
2010,03,29,16,12,264.50
2010,03,29,16,13,262.00
2010,03,29,16,14,222.80
2010,03,29,16,15,178.80
2010,03,29,16,16,156.70
2010,03,29,16,17,151.40
2010,03,29,16,18,159.20
2010,03,29,16,19,178.30
2010,03,29,16,20,190.00
2010,03,29,16,21,185.50
2010,03,29,16,22,177.80
2010,03,29,16,23,173.20
2010,03,29,16,24,164.80
2010,03,29,16,25,153.60
2010,03,29,16,26,142.60
2010,03,29,16,27,133.80
2010,03,29,16,28,128.90
2010,03,29,16,29,125.10
2010,03,29,16,30,120.20
2010,03,29,16,31,120.00
2010,03,29,16,32,128.10
2010,03,29,16,33,139.40
2010,03,29,16,34,156.00
2010,03,29,16,35,164.70
2010,03,29,16,36,183.00
2010,03,29,16,37,217.30
2010,03,29,16,38,255.80
2010,03,29,16,39,276.70
2010,03,29,16,40,278.80
2010,03,29,16,41,265.00
2010,03,29,16,42,246.80
2010,03,29,16,43,226.60
2010,03,29,16,44,209.50
2010,03,29,16,45,195.50
2010,03,29,16,46,182.60
2010,03,29,16,47,166.10
2010,03,29,16,48,145.30
2010,03,29,16,49,127.90
2010,03,29,16,50,119.10
2010,03,29,16,51,116.10
2010,03,29,16,52,116.40
2010,03,29,16,53,118.00
2010,03,29,16,54,114.60
2010,03,29,16,55,103.00
2010,03,29,16,56,90.60
2010,03,29,16,57,79.50
2010,03,29,16,58,70.80
2010,03,29,16,59,62.70
2010,03,29,17,00,53.20
2010,03,29,17,01,48.60
2010,03,29,17,02,48.40
2010,03,29,17,03,53.90
2010,03,29,17,04,60.60
2010,03,29,17,05,65.50
2010,03,29,17,06,69.20
2010,03,29,17,07,70.00
2010,03,29,17,08,65.10
2010,03,29,17,09,55.00
2010,03,29,17,10,47.70
2010,03,29,17,11,42.50
2010,03,29,17,12,37.50
2010,03,29,17,13,33.30
2010,03,29,17,14,30.70
2010,03,29,17,15,28.40
2010,03,29,17,16,26.20
2010,03,29,17,17,24.90
2010,03,29,17,18,22.60
2010,03,29,17,19,20.40
2010,03,29,17,20,18.60
2010,03,29,17,21,16.00
2010,03,29,17,22,12.70